Time,TemperatureF,DewpointF,PressureIn,WindDirection,WindDirectionDegrees,WindSpeedMPH,WindSpeedGustMPH,Humidity,HourlyPrecipIn,Conditions,Clouds,dailyrainin,SoftwareType,DateUTC
2013-02-05 00:00:00,38.4,28.0,29.99,SW,236,2.0,3.0,66,0.00,,---,0.00,VWS V14.01,2013-02-05 05:00:00,
2013-02-05 00:05:00,38.7,28.3,29.99,West,259,4.0,5.0,66,0.00,,---,0.00,VWS V14.01,2013-02-05 05:05:00,
2013-02-05 00:10:00,38.8,28.4,29.99,WSW,238,2.0,5.0,66,0.00,,---,0.00,VWS V14.01,2013-02-05 05:10:00,
2013-02-05 00:15:00,38.9,28.5,29.99,South,182,1.0,5.0,66,0.00,,---,0.00,VWS V14.01,2013-02-05 05:15:00,
2013-02-05 00:20:00,38.9,28.5,29.98,WSW,250,1.0,5.0,66,0.00,,---,0.00,VWS V14.01,2013-02-05 05:20:00,
2013-02-05 00:25:00,39.0,28.6,29.98,SSW,206,1.0,5.0,66,0.00,,---,0.00,VWS V14.01,2013-02-05 05:25:00,
2013-02-05 00:30:00,39.1,28.7,29.98,SW,227,2.0,4.0,66,0.00,,---,0.00,VWS V14.01,2013-02-05 05:30:00,
2013-02-05 00:35:00,39.1,28.7,29.98,WSW,246,1.0,4.0,66,0.00,,---,0.00,VWS V14.01,2013-02-05 05:35:00,
2013-02-05 00:40:00,39.1,28.7,29.98,SW,234,2.0,5.0,66,0.00,,---,0.00,VWS V14.01,2013-02-05 05:40:00,
2013-02-05 00:45:00,39.2,28.8,29.98,West,273,0.0,5.0,66,0.00,,---,0.00,VWS V14.01,2013-02-05 05:45:00,
2013-02-05 00:50:00,39.2,28.8,29.97,WSW,251,1.0,5.0,66,0.00,,---,0.00,VWS V14.01,2013-02-05 05:50:00,
2013-02-05 00:55:00,39.2,28.8,29.97,WSW,242,1.0,5.0,66,0.00,,---,0.00,VWS V14.01,2013-02-05 05:55:00,
2013-02-05 01:00:00,39.1,28.7,29.97,WSW,257,1.0,4.0,66,0.00,,---,0.00,VWS V14.01,2013-02-05 06:00:00,
2013-02-05 01:05:00,39.1,28.7,29.96,SW,225,0.0,5.0,66,0.00,,---,0.00,VWS V14.01,2013-02-05 06:05:00,
2013-02-05 01:10:00,39.1,28.7,29.96,SW,221,1.0,5.0,66,0.00,,---,0.00,VWS V14.01,2013-02-05 06:10:00,
2013-02-05 01:15:00,39.2,29.2,29.96,West,272,0.0,5.0,67,0.00,,---,0.00,VWS V14.01,2013-02-05 06:15:00,
2013-02-05 01:20:00,39.2,28.8,29.96,West,261,1.0,5.0,66,0.00,,---,0.00,VWS V14.01,2013-02-05 06:20:00,
2013-02-05 01:25:00,39.2,29.2,29.96,SW,227,0.0,0.0,67,0.00,,---,0.00,VWS V14.01,2013-02-05 06:25:00,
2013-02-05 01:30:00,39.2,29.2,29.96,SW,229,1.0,1.0,67,0.00,,---,0.00,VWS V14.01,2013-02-05 06:30:00,
2013-02-05 01:35:00,39.2,29.2,29.96,SW,227,0.0,1.0,67,0.00,,---,0.00,VWS V14.01,2013-02-05 06:35:00,
2013-02-05 01:40:00,39.1,29.1,29.96,SW,227,0.0,1.0,67,0.00,,---,0.00,VWS V14.01,2013-02-05 06:40:00,
2013-02-05 01:45:00,39.0,29.0,29.96,SW,221,0.0,2.0,67,0.00,,---,0.00,VWS V14.01,2013-02-05 06:45:00,
2013-02-05 01:50:00,39.0,29.0,29.96,SW,221,0.0,2.0,67,0.00,,---,0.00,VWS V14.01,2013-02-05 06:50:00,
2013-02-05 01:55:00,38.9,28.9,29.96,SW,222,0.0,0.0,67,0.00,,---,0.00,VWS V14.01,2013-02-05 06:55:00,
2013-02-05 02:01:00,38.9,28.9,29.95,SSW,192,1.0,2.0,67,0.00,,---,0.00,VWS V14.01,2013-02-05 07:01:00,
2013-02-05 02:05:00,38.9,29.2,29.95,SSW,195,0.0,2.0,68,0.00,,---,0.00,VWS V14.01,2013-02-05 07:05:00,
2013-02-05 02:10:00,38.8,29.2,29.95,SSW,194,1.0,2.0,68,0.00,,---,0.00,VWS V14.01,2013-02-05 07:10:00,
2013-02-05 02:16:00,38.8,29.2,29.95,WSW,240,1.0,2.0,68,0.00,,---,0.00,VWS V14.01,2013-02-05 07:16:00,
2013-02-05 02:21:00,38.9,29.2,29.94,WSW,244,1.0,2.0,68,0.00,,---,0.00,VWS V14.01,2013-02-05 07:21:00,
2013-02-05 02:26:00,38.9,29.2,29.94,WSW,240,0.0,0.0,68,0.00,,---,0.00,VWS V14.01,2013-02-05 07:26:00,
2013-02-05 02:31:00,38.9,29.2,29.94,SW,215,1.0,3.0,68,0.00,,---,0.00,VWS V14.01,2013-02-05 07:31:00,
2013-02-05 02:36:00,38.9,29.2,29.94,WNW,286,0.0,3.0,68,0.00,,---,0.00,VWS V14.01,2013-02-05 07:36:00,
2013-02-05 02:41:00,38.8,29.2,29.94,WSW,246,2.0,3.0,68,0.00,,---,0.00,VWS V14.01,2013-02-05 07:41:00,
2013-02-05 02:46:00,38.8,29.2,29.93,South,169,1.0,3.0,68,0.00,,---,0.00,VWS V14.01,2013-02-05 07:46:00,
2013-02-05 02:51:00,38.7,29.4,29.94,WSW,250,2.0,3.0,69,0.00,,---,0.00,VWS V14.01,2013-02-05 07:51:00,
2013-02-05 02:56:00,38.7,29.4,29.94,WSW,241,0.0,0.0,69,0.00,,---,0.00,VWS V14.01,2013-02-05 07:56:00,
2013-02-05 03:01:00,38.7,29.4,29.94,WSW,251,0.0,4.0,69,0.00,,---,0.00,VWS V14.01,2013-02-05 08:01:00,
2013-02-05 03:06:00,38.7,29.4,29.94,SW,232,0.0,4.0,69,0.00,,---,0.00,VWS V14.01,2013-02-05 08:06:00,
2013-02-05 03:11:00,38.7,29.4,29.93,West,264,1.0,4.0,69,0.00,,---,0.00,VWS V14.01,2013-02-05 08:11:00,
2013-02-05 03:16:00,38.7,29.4,29.93,WSW,249,1.0,4.0,69,0.00,,---,0.00,VWS V14.01,2013-02-05 08:16:00,
2013-02-05 03:21:00,38.6,29.3,29.93,SW,229,1.0,4.0,69,0.00,,---,0.00,VWS V14.01,2013-02-05 08:21:00,
2013-02-05 03:26:00,38.7,29.4,29.93,WSW,257,0.0,0.0,69,0.00,,---,0.00,VWS V14.01,2013-02-05 08:26:00,
2013-02-05 03:31:00,38.6,29.3,29.93,WSW,257,0.0,1.0,69,0.00,,---,0.00,VWS V14.01,2013-02-05 08:31:00,
2013-02-05 03:36:00,38.5,29.2,29.93,WSW,244,1.0,2.0,69,0.00,,---,0.00,VWS V14.01,2013-02-05 08:36:00,
2013-02-05 03:41:00,38.5,29.2,29.93,South,171,1.0,2.0,69,0.00,,---,0.00,VWS V14.01,2013-02-05 08:41:00,
2013-02-05 03:46:00,38.5,29.2,29.93,South,171,0.0,2.0,69,0.00,,---,0.00,VWS V14.01,2013-02-05 08:46:00,
2013-02-05 03:51:00,38.5,29.6,29.93,South,171,1.0,2.0,70,0.00,,---,0.00,VWS V14.01,2013-02-05 08:51:00,
2013-02-05 03:56:00,38.5,29.6,29.93,South,171,0.0,0.0,70,0.00,,---,0.00,VWS V14.01,2013-02-05 08:56:00,
2013-02-05 04:01:00,38.4,29.5,29.93,SSE,167,0.0,1.0,70,0.00,,---,0.00,VWS V14.01,2013-02-05 09:01:00,
2013-02-05 04:06:00,38.4,29.5,29.92,SSE,167,0.0,1.0,70,0.00,,---,0.00,VWS V14.01,2013-02-05 09:06:00,
2013-02-05 04:11:00,38.4,29.5,29.92,SSE,164,0.0,1.0,70,0.00,,---,0.00,VWS V14.01,2013-02-05 09:11:00,
2013-02-05 04:17:00,38.4,29.5,29.92,SSE,160,0.0,1.0,70,0.00,,---,0.00,VWS V14.01,2013-02-05 09:17:00,
2013-02-05 04:22:00,38.4,29.5,29.92,SSE,159,0.0,1.0,70,0.00,,---,0.00,VWS V14.01,2013-02-05 09:22:00,
2013-02-05 04:27:00,38.4,29.5,29.92,South,180,0.0,2.0,70,0.00,,---,0.00,VWS V14.01,2013-02-05 09:27:00,
2013-02-05 04:32:00,38.5,29.6,29.92,South,191,1.0,2.0,70,0.00,,---,0.00,VWS V14.01,2013-02-05 09:32:00,
2013-02-05 04:37:00,38.5,29.6,29.92,South,175,0.0,4.0,70,0.00,,---,0.00,VWS V14.01,2013-02-05 09:37:00,
2013-02-05 04:42:00,38.5,29.6,29.92,SW,229,0.0,4.0,70,0.00,,---,0.00,VWS V14.01,2013-02-05 09:42:00,
2013-02-05 04:47:00,38.5,29.6,29.92,SW,229,0.0,4.0,70,0.00,,---,0.00,VWS V14.01,2013-02-05 09:47:00,
2013-02-05 04:52:00,38.5,29.6,29.92,WSW,245,1.0,4.0,70,0.00,,---,0.00,VWS V14.01,2013-02-05 09:52:00,
2013-02-05 04:57:00,38.6,29.7,29.92,SW,225,0.0,0.0,70,0.00,,---,0.00,VWS V14.01,2013-02-05 09:57:00,
2013-02-05 05:02:00,38.6,29.7,29.92,WSW,248,1.0,1.0,70,0.00,,---,0.00,VWS V14.01,2013-02-05 10:02:00,
2013-02-05 05:07:00,38.6,29.7,29.92,SW,236,0.0,1.0,70,0.00,,---,0.00,VWS V14.01,2013-02-05 10:07:00,
2013-02-05 05:12:00,38.5,29.6,29.92,SW,222,0.0,2.0,70,0.00,,---,0.00,VWS V14.01,2013-02-05 10:12:00,
2013-02-05 05:17:00,38.5,29.9,29.93,WSW,240,0.0,2.0,71,0.00,,---,0.00,VWS V14.01,2013-02-05 10:17:00,
2013-02-05 05:22:00,38.4,29.8,29.93,WSW,238,0.0,2.0,71,0.00,,---,0.00,VWS V14.01,2013-02-05 10:22:00,
2013-02-05 05:27:00,38.3,29.7,29.93,SW,218,1.0,1.0,71,0.00,,---,0.00,VWS V14.01,2013-02-05 10:27:00,
2013-02-05 05:32:00,38.3,29.7,29.93,SW,220,0.0,1.0,71,0.00,,---,0.00,VWS V14.01,2013-02-05 10:32:00,
2013-02-05 05:37:00,38.3,29.7,29.93,SW,217,1.0,1.0,71,0.00,,---,0.00,VWS V14.01,2013-02-05 10:37:00,
2013-02-05 05:42:00,38.3,29.7,29.93,South,173,1.0,1.0,71,0.00,,---,0.00,VWS V14.01,2013-02-05 10:42:00,
2013-02-05 05:47:00,38.2,30.0,29.93,South,178,0.0,1.0,72,0.00,,---,0.00,VWS V14.01,2013-02-05 10:47:00,
2013-02-05 05:52:00,38.2,30.0,29.93,South,175,0.0,1.0,72,0.00,,---,0.00,VWS V14.01,2013-02-05 10:52:00,
2013-02-05 05:57:00,38.2,30.0,29.93,SW,230,0.0,0.0,72,0.00,,---,0.00,VWS V14.01,2013-02-05 10:57:00,
2013-02-05 06:02:00,38.1,29.9,29.93,SSE,166,0.0,2.0,72,0.00,,---,0.00,VWS V14.01,2013-02-05 11:02:00,
2013-02-05 06:07:00,38.1,29.9,29.93,SW,226,1.0,2.0,72,0.00,,---,0.00,VWS V14.01,2013-02-05 11:07:00,
2013-02-05 06:12:00,38.1,29.9,29.93,SSW,201,0.0,2.0,72,0.00,,---,0.00,VWS V14.01,2013-02-05 11:12:00,
2013-02-05 06:17:00,38.1,29.9,29.93,SSW,213,0.0,2.0,72,0.00,,---,0.00,VWS V14.01,2013-02-05 11:17:00,
2013-02-05 06:22:00,38.1,29.9,29.93,SW,226,0.0,2.0,72,0.00,,---,0.00,VWS V14.01,2013-02-05 11:22:00,
2013-02-05 06:27:00,38.1,29.9,29.93,SW,227,2.0,4.0,72,0.00,,---,0.00,VWS V14.01,2013-02-05 11:27:00,
2013-02-05 06:32:00,38.1,30.2,29.93,SW,219,1.0,4.0,73,0.00,,---,0.00,VWS V14.01,2013-02-05 11:32:00,
2013-02-05 06:37:00,38.1,30.2,29.93,WSW,249,1.0,4.0,73,0.00,,---,0.00,VWS V14.01,2013-02-05 11:37:00,
2013-02-05 06:42:00,38.0,30.1,29.93,SSE,161,0.0,4.0,73,0.00,,---,0.00,VWS V14.01,2013-02-05 11:42:00,
2013-02-05 06:47:00,38.0,30.1,29.93,SW,225,1.0,4.0,73,0.00,,---,0.00,VWS V14.01,2013-02-05 11:47:00,
2013-02-05 06:52:00,38.0,30.1,29.94,WSW,244,1.0,4.0,73,0.00,,---,0.00,VWS V14.01,2013-02-05 11:52:00,
2013-02-05 06:57:00,38.0,30.1,29.93,WSW,245,0.0,0.0,73,0.00,,---,0.00,VWS V14.01,2013-02-05 11:57:00,
2013-02-05 07:02:00,37.9,30.0,29.93,SSW,205,2.0,5.0,73,0.00,,---,0.00,VWS V14.01,2013-02-05 12:02:00,
2013-02-05 07:07:00,37.9,30.0,29.93,SSE,156,0.0,5.0,73,0.00,,---,0.00,VWS V14.01,2013-02-05 12:07:00,
2013-02-05 07:12:00,37.8,29.9,29.93,South,173,0.0,5.0,73,0.00,,---,0.00,VWS V14.01,2013-02-05 12:12:00,
2013-02-05 07:17:00,37.8,30.3,29.94,WSW,238,0.0,5.0,74,0.00,,---,0.00,VWS V14.01,2013-02-05 12:17:00,
2013-02-05 07:22:00,37.8,30.3,29.94,SSE,168,0.0,5.0,74,0.00,,---,0.00,VWS V14.01,2013-02-05 12:22:00,
2013-02-05 07:27:00,37.7,30.2,29.94,SSE,167,0.0,0.0,74,0.00,,---,0.00,VWS V14.01,2013-02-05 12:27:00,
2013-02-05 07:32:00,37.7,30.2,29.95,SSE,168,0.0,1.0,74,0.00,,---,0.00,VWS V14.01,2013-02-05 12:32:00,
2013-02-05 07:37:00,37.7,30.2,29.95,South,178,0.0,1.0,74,0.00,,---,0.00,VWS V14.01,2013-02-05 12:37:00,
2013-02-05 07:43:00,37.8,30.3,29.95,SSE,161,0.0,1.0,74,0.00,,---,0.00,VWS V14.01,2013-02-05 12:43:00,
2013-02-05 07:48:00,37.9,30.4,29.95,SSW,209,1.0,1.0,74,0.00,,---,0.00,VWS V14.01,2013-02-05 12:48:00,
2013-02-05 07:53:00,38.0,30.5,29.95,SW,236,1.0,2.0,74,0.00,,---,0.00,VWS V14.01,2013-02-05 12:53:00,
2013-02-05 07:58:00,38.1,30.6,29.95,South,172,0.0,1.0,74,0.00,,---,0.00,VWS V14.01,2013-02-05 12:58:00,
2013-02-05 08:03:00,38.3,30.8,29.95,WSW,242,1.0,2.0,74,0.00,,---,0.00,VWS V14.01,2013-02-05 13:03:00,
2013-02-05 08:08:00,38.5,31.0,29.96,NNW,327,1.0,2.0,74,0.00,,---,0.00,VWS V14.01,2013-02-05 13:08:00,
2013-02-05 08:13:00,38.7,31.1,29.96,SSE,152,0.0,2.0,74,0.00,,---,0.00,VWS V14.01,2013-02-05 13:13:00,
2013-02-05 08:18:00,39.0,31.1,29.96,SW,226,1.0,5.0,73,0.00,,---,0.00,VWS V14.01,2013-02-05 13:18:00,
2013-02-05 08:23:00,39.3,31.4,29.95,WNW,286,1.0,5.0,73,0.00,,---,0.00,VWS V14.01,2013-02-05 13:23:00,
2013-02-05 08:28:00,39.4,31.1,29.96,SW,217,2.0,4.0,72,0.00,,---,0.00,VWS V14.01,2013-02-05 13:28:00,
2013-02-05 08:33:00,39.5,31.2,29.95,WSW,239,2.0,4.0,72,0.00,,---,0.00,VWS V14.01,2013-02-05 13:33:00,
2013-02-05 08:38:00,39.6,31.3,29.96,South,191,2.0,4.0,72,0.00,,---,0.00,VWS V14.01,2013-02-05 13:38:00,
2013-02-05 08:43:00,39.7,31.4,29.96,WSW,241,4.0,4.0,72,0.00,,---,0.00,VWS V14.01,2013-02-05 13:43:00,
2013-02-05 08:48:00,39.9,31.6,29.96,SW,227,2.0,4.0,72,0.00,,---,0.00,VWS V14.01,2013-02-05 13:48:00,
2013-02-05 08:53:00,40.1,31.5,29.96,NW,315,0.0,5.0,71,0.00,,---,0.00,VWS V14.01,2013-02-05 13:53:00,
2013-02-05 08:58:00,40.5,31.9,29.96,WNW,289,4.0,4.0,71,0.00,,---,0.00,VWS V14.01,2013-02-05 13:58:00,
2013-02-05 09:03:00,40.8,31.8,29.96,WSW,242,4.0,6.0,70,0.00,,---,0.00,VWS V14.01,2013-02-05 14:03:00,
2013-02-05 09:08:00,41.1,32.1,29.96,West,280,0.0,6.0,70,0.00,,---,0.00,VWS V14.01,2013-02-05 14:08:00,
2013-02-05 09:13:00,41.5,32.5,29.95,SSE,167,2.0,6.0,70,0.00,,---,0.00,VWS V14.01,2013-02-05 14:13:00,
2013-02-05 09:18:00,42.1,32.7,29.95,NW,323,1.0,6.0,69,0.00,,---,0.00,VWS V14.01,2013-02-05 14:18:00,
2013-02-05 09:23:00,42.7,32.9,29.96,WNW,286,5.0,6.0,68,0.00,,---,0.00,VWS V14.01,2013-02-05 14:23:00,
2013-02-05 09:28:00,43.4,32.8,29.95,SSW,192,2.0,6.0,66,0.00,,---,0.00,VWS V14.01,2013-02-05 14:28:00,
2013-02-05 09:33:00,44.1,33.1,29.95,SSE,161,1.0,6.0,65,0.00,,---,0.00,VWS V14.01,2013-02-05 14:33:00,
2013-02-05 09:38:00,44.7,32.9,29.96,SW,218,2.0,6.0,63,0.00,,---,0.00,VWS V14.01,2013-02-05 14:38:00,
2013-02-05 09:43:00,44.9,33.1,29.96,NW,317,2.0,6.0,63,0.00,,---,0.00,VWS V14.01,2013-02-05 14:43:00,
2013-02-05 09:48:00,44.9,32.7,29.96,SE,135,1.0,6.0,62,0.00,,---,0.00,VWS V14.01,2013-02-05 14:48:00,
2013-02-05 09:53:00,45.1,33.3,29.96,South,171,1.0,6.0,63,0.00,,---,0.00,VWS V14.01,2013-02-05 14:53:00,
2013-02-05 09:58:00,45.2,33.0,29.96,SSW,207,4.0,4.0,62,0.00,,---,0.00,VWS V14.01,2013-02-05 14:58:00,
2013-02-05 10:03:00,45.3,33.1,29.96,WNW,296,5.0,5.0,62,0.00,,---,0.00,VWS V14.01,2013-02-05 15:03:00,
2013-02-05 10:08:00,45.4,33.2,29.97,SSW,205,1.0,8.0,62,0.00,,---,0.00,VWS V14.01,2013-02-05 15:08:00,
2013-02-05 10:13:00,45.6,32.9,29.97,West,264,2.0,8.0,61,0.00,,---,0.00,VWS V14.01,2013-02-05 15:13:00,
2013-02-05 10:18:00,45.9,33.6,29.97,WNW,298,2.0,8.0,62,0.00,,---,0.00,VWS V14.01,2013-02-05 15:18:00,
2013-02-05 10:23:00,46.0,32.9,29.97,WNW,288,4.0,8.0,60,0.00,,---,0.00,VWS V14.01,2013-02-05 15:23:00,
2013-02-05 10:28:00,46.2,33.1,29.96,SE,140,1.0,7.0,60,0.00,,---,0.00,VWS V14.01,2013-02-05 15:28:00,
2013-02-05 10:33:00,46.3,33.2,29.96,WNW,289,1.0,8.0,60,0.00,,---,0.00,VWS V14.01,2013-02-05 15:33:00,
2013-02-05 10:38:00,46.4,33.3,29.96,West,272,1.0,9.0,60,0.00,,---,0.00,VWS V14.01,2013-02-05 15:38:00,
2013-02-05 10:43:00,46.5,33.4,29.95,West,273,5.0,9.0,60,0.00,,---,0.00,VWS V14.01,2013-02-05 15:43:00,
2013-02-05 10:48:00,46.4,32.9,29.95,SW,217,2.0,9.0,59,0.00,,---,0.00,VWS V14.01,2013-02-05 15:48:00,
2013-02-05 10:54:00,46.4,33.3,29.95,South,183,5.0,9.0,60,0.00,,---,0.00,VWS V14.01,2013-02-05 15:54:00,
2013-02-05 10:59:00,46.6,33.0,29.96,SSW,211,0.0,4.0,59,0.00,,---,0.00,VWS V14.01,2013-02-05 15:59:00,
2013-02-05 11:04:00,46.9,32.9,29.96,WNW,295,6.0,6.0,58,0.00,,---,0.00,VWS V14.01,2013-02-05 16:04:00,
2013-02-05 11:09:00,47.1,33.5,29.96,WSW,254,1.0,8.0,59,0.00,,---,0.00,VWS V14.01,2013-02-05 16:09:00,
2013-02-05 11:14:00,47.3,33.3,29.96,WNW,282,8.0,8.0,58,0.00,,---,0.00,VWS V14.01,2013-02-05 16:14:00,
2013-02-05 11:19:00,47.5,33.5,29.96,WNW,288,6.0,8.0,58,0.00,,---,0.00,VWS V14.01,2013-02-05 16:19:00,
2013-02-05 11:24:00,47.8,33.3,29.95,WNW,289,11.0,11.0,57,0.00,,---,0.00,VWS V14.01,2013-02-05 16:24:00,
2013-02-05 11:29:00,47.8,32.9,29.95,NW,309,4.0,7.0,56,0.00,,---,0.00,VWS V14.01,2013-02-05 16:29:00,
2013-02-05 11:34:00,47.8,33.3,29.95,NW,310,8.0,8.0,57,0.00,,---,0.00,VWS V14.01,2013-02-05 16:34:00,
2013-02-05 11:39:00,48.0,33.5,29.95,NW,310,2.0,8.0,57,0.00,,---,0.00,VWS V14.01,2013-02-05 16:39:00,
2013-02-05 11:44:00,48.1,33.6,29.95,West,271,2.0,8.0,57,0.00,,---,0.00,VWS V14.01,2013-02-05 16:44:00,
2013-02-05 11:49:00,48.2,35.0,29.95,West,281,5.0,8.0,60,0.00,,---,0.00,VWS V14.01,2013-02-05 16:49:00,
2013-02-05 11:54:00,48.0,35.6,29.95,West,273,0.0,8.0,62,0.00,,---,0.00,VWS V14.01,2013-02-05 16:54:00,
2013-02-05 11:59:00,47.9,36.3,29.95,WNW,303,0.0,2.0,64,0.00,,---,0.00,VWS V14.01,2013-02-05 16:59:00,
2013-02-05 12:04:00,47.9,35.1,29.94,WNW,284,1.0,5.0,61,0.00,,---,0.00,VWS V14.01,2013-02-05 17:04:00,
2013-02-05 12:09:00,48.0,35.6,29.94,WNW,293,2.0,7.0,62,0.00,,---,0.00,VWS V14.01,2013-02-05 17:09:00,
2013-02-05 12:14:00,48.2,34.6,29.94,WNW,296,5.0,7.0,59,0.00,,---,0.00,VWS V14.01,2013-02-05 17:14:00,
2013-02-05 12:19:00,48.4,34.3,29.93,WSW,254,4.0,7.0,58,0.00,,---,0.00,VWS V14.01,2013-02-05 17:19:00,
2013-02-05 12:24:00,48.4,34.3,29.93,WSW,240,4.0,8.0,58,0.00,,---,0.00,VWS V14.01,2013-02-05 17:24:00,
2013-02-05 12:29:00,48.5,35.3,29.92,SSW,208,4.0,6.0,60,0.00,,---,0.00,VWS V14.01,2013-02-05 17:29:00,
2013-02-05 12:34:00,49.3,35.6,29.93,WNW,302,2.0,6.0,59,0.00,,---,0.00,VWS V14.01,2013-02-05 17:34:00,
2013-02-05 12:39:00,49.9,34.8,29.92,WSW,245,8.0,8.0,56,0.00,,---,0.00,VWS V14.01,2013-02-05 17:39:00,
2013-02-05 12:44:00,50.0,34.9,29.92,SW,217,6.0,8.0,56,0.00,,---,0.00,VWS V14.01,2013-02-05 17:44:00,
2013-02-05 12:49:00,50.3,34.8,29.92,SW,230,7.0,8.0,55,0.00,,---,0.00,VWS V14.01,2013-02-05 17:49:00,
2013-02-05 12:54:00,50.6,35.9,29.92,WNW,302,1.0,8.0,57,0.00,,---,0.00,VWS V14.01,2013-02-05 17:54:00,
2013-02-05 12:59:00,51.4,35.8,29.91,SW,225,1.0,2.0,55,0.00,,---,0.00,VWS V14.01,2013-02-05 17:59:00,
2013-02-05 13:04:00,52.1,35.0,29.91,NNW,348,2.0,6.0,52,0.00,,---,0.00,VWS V14.01,2013-02-05 18:04:00,
2013-02-05 13:09:00,52.8,35.2,29.90,NW,322,4.0,6.0,51,0.00,,---,0.00,VWS V14.01,2013-02-05 18:09:00,
2013-02-05 13:14:00,53.2,34.5,29.90,West,272,6.0,6.0,49,0.00,,---,0.00,VWS V14.01,2013-02-05 18:14:00,
2013-02-05 13:19:00,53.1,34.5,29.90,WNW,295,2.0,6.0,49,0.00,,---,0.00,VWS V14.01,2013-02-05 18:19:00,
2013-02-05 13:24:00,53.2,34.0,29.90,NW,310,4.0,7.0,48,0.00,,---,0.00,VWS V14.01,2013-02-05 18:24:00,
2013-02-05 13:29:00,53.4,34.2,29.90,WSW,258,4.0,9.0,48,0.00,,---,0.00,VWS V14.01,2013-02-05 18:29:00,
2013-02-05 13:34:00,53.8,34.6,29.89,SSW,210,6.0,9.0,48,0.00,,---,0.00,VWS V14.01,2013-02-05 18:34:00,
2013-02-05 13:39:00,54.4,34.6,29.89,WSW,238,5.0,9.0,47,0.00,,---,0.00,VWS V14.01,2013-02-05 18:39:00,
2013-02-05 13:44:00,54.9,35.1,29.89,South,178,1.0,9.0,47,0.00,,---,0.00,VWS V14.01,2013-02-05 18:44:00,
2013-02-05 13:49:00,55.3,34.3,29.89,NNE,16,5.0,9.0,45,0.00,,---,0.00,VWS V14.01,2013-02-05 18:49:00,
2013-02-05 13:54:00,55.3,33.8,29.89,WNW,288,4.0,9.0,44,0.00,,---,0.00,VWS V14.01,2013-02-05 18:54:00,
2013-02-05 13:59:00,54.9,32.8,29.89,WNW,295,4.0,6.0,43,0.00,,---,0.00,VWS V14.01,2013-02-05 18:59:00,
2013-02-05 14:05:00,54.9,33.4,29.88,SW,232,1.0,6.0,44,0.00,,---,0.00,VWS V14.01,2013-02-05 19:05:00,
2013-02-05 14:10:00,55.2,33.7,29.88,WNW,300,0.0,6.0,44,0.00,,---,0.00,VWS V14.01,2013-02-05 19:10:00,
2013-02-05 14:15:00,55.8,33.7,29.88,SW,223,5.0,7.0,43,0.00,,---,0.00,VWS V14.01,2013-02-05 19:15:00,
2013-02-05 14:20:00,55.8,33.7,29.88,SSW,194,1.0,7.0,43,0.00,,---,0.00,VWS V14.01,2013-02-05 19:20:00,
2013-02-05 14:25:00,56.2,34.0,29.88,WNW,291,5.0,7.0,43,0.00,,---,0.00,VWS V14.01,2013-02-05 19:25:00,
2013-02-05 14:30:00,56.4,34.2,29.88,NW,310,1.0,7.0,43,0.00,,---,0.00,VWS V14.01,2013-02-05 19:30:00,
2013-02-05 14:35:00,56.7,33.3,29.88,NW,307,1.0,8.0,41,0.00,,---,0.00,VWS V14.01,2013-02-05 19:35:00,
2013-02-05 14:40:00,56.6,33.8,29.88,NW,310,3.0,8.0,42,0.00,,---,0.00,VWS V14.01,2013-02-05 19:40:00,
2013-02-05 14:45:00,57.1,33.6,29.88,NW,324,0.0,8.0,41,0.00,,---,0.00,VWS V14.01,2013-02-05 19:45:00,
2013-02-05 14:50:00,57.2,33.7,29.88,SW,222,2.0,8.0,41,0.00,,---,0.00,VWS V14.01,2013-02-05 19:50:00,
2013-02-05 14:55:00,57.7,34.2,29.88,South,177,9.0,9.0,41,0.00,,---,0.00,VWS V14.01,2013-02-05 19:55:00,
2013-02-05 15:00:00,57.8,33.7,29.87,South,171,2.0,6.0,40,0.00,,---,0.00,VWS V14.01,2013-02-05 20:00:00,
2013-02-05 15:05:00,57.9,33.8,29.88,West,261,3.0,6.0,40,0.00,,---,0.00,VWS V14.01,2013-02-05 20:05:00,
2013-02-05 15:10:00,57.8,33.7,29.87,West,269,5.0,6.0,40,0.00,,---,0.00,VWS V14.01,2013-02-05 20:10:00,
2013-02-05 15:15:00,58.0,34.5,29.87,SSE,168,1.0,6.0,41,0.00,,---,0.00,VWS V14.01,2013-02-05 20:15:00,
2013-02-05 15:20:00,58.3,34.1,29.87,SW,224,7.0,9.0,40,0.00,,---,0.00,VWS V14.01,2013-02-05 20:20:00,
2013-02-05 15:25:00,58.5,34.3,29.87,NNW,344,2.0,9.0,40,0.00,,---,0.00,VWS V14.01,2013-02-05 20:25:00,
2013-02-05 15:30:00,58.4,34.2,29.87,SW,218,3.0,8.0,40,0.00,,---,0.00,VWS V14.01,2013-02-05 20:30:00,
2013-02-05 15:35:00,58.3,34.1,29.87,NW,321,4.0,8.0,40,0.00,,---,0.00,VWS V14.01,2013-02-05 20:35:00,
2013-02-05 15:40:00,58.6,34.4,29.87,WSW,254,4.0,8.0,40,0.00,,---,0.00,VWS V14.01,2013-02-05 20:40:00,
2013-02-05 15:45:00,58.7,34.5,29.87,SW,217,2.0,9.0,40,0.00,,---,0.00,VWS V14.01,2013-02-05 20:45:00,
2013-02-05 15:50:00,59.0,34.7,29.87,WSW,248,3.0,9.0,40,0.00,,---,0.00,VWS V14.01,2013-02-05 20:50:00,
2013-02-05 15:55:00,59.1,34.2,29.87,West,260,1.0,9.0,39,0.00,,---,0.00,VWS V14.01,2013-02-05 20:55:00,
2013-02-05 16:00:00,59.3,34.4,29.87,WNW,298,2.0,4.0,39,0.00,,---,0.00,VWS V14.01,2013-02-05 21:00:00,
2013-02-05 16:05:00,59.3,35.0,29.88,NNW,331,1.0,5.0,40,0.00,,---,0.00,VWS V14.01,2013-02-05 21:05:00,
2013-02-05 16:10:00,59.2,34.9,29.88,NW,325,5.0,7.0,40,0.00,,---,0.00,VWS V14.01,2013-02-05 21:10:00,
2013-02-05 16:15:00,59.1,34.8,29.88,WNW,296,2.0,7.0,40,0.00,,---,0.00,VWS V14.01,2013-02-05 21:15:00,
2013-02-05 16:20:00,59.0,34.7,29.88,NW,306,7.0,7.0,40,0.00,,---,0.00,VWS V14.01,2013-02-05 21:20:00,
2013-02-05 16:25:00,58.9,34.6,29.88,SW,236,2.0,7.0,40,0.00,,---,0.00,VWS V14.01,2013-02-05 21:25:00,
2013-02-05 16:30:00,59.0,35.3,29.88,South,190,5.0,8.0,41,0.00,,---,0.00,VWS V14.01,2013-02-05 21:30:00,
2013-02-05 16:35:00,58.9,35.3,29.88,North,360,5.0,8.0,41,0.00,,---,0.00,VWS V14.01,2013-02-05 21:35:00,
2013-02-05 16:40:00,58.8,35.2,29.88,West,281,10.0,10.0,41,0.00,,---,0.00,VWS V14.01,2013-02-05 21:40:00,
2013-02-05 16:45:00,58.6,35.6,29.88,South,177,5.0,10.0,42,0.00,,---,0.00,VWS V14.01,2013-02-05 21:45:00,
2013-02-05 16:50:00,58.4,35.4,29.88,ESE,123,6.0,10.0,42,0.00,,---,0.00,VWS V14.01,2013-02-05 21:50:00,
2013-02-05 16:55:00,58.3,35.3,29.88,West,273,2.0,10.0,42,0.00,,---,0.00,VWS V14.01,2013-02-05 21:55:00,
2013-02-05 17:00:00,58.2,35.2,29.88,West,281,8.0,8.0,42,0.00,,---,0.00,VWS V14.01,2013-02-05 22:00:00,
2013-02-05 17:05:00,58.0,35.1,29.88,NNW,342,3.0,9.0,42,0.00,,---,0.00,VWS V14.01,2013-02-05 22:05:00,
2013-02-05 17:10:00,57.9,35.0,29.88,West,280,2.0,9.0,42,0.00,,---,0.00,VWS V14.01,2013-02-05 22:10:00,
2013-02-05 17:15:00,57.7,35.4,29.88,SW,221,1.0,9.0,43,0.00,,---,0.00,VWS V14.01,2013-02-05 22:15:00,
2013-02-05 17:20:00,57.4,35.7,29.87,NW,325,2.0,9.0,44,0.00,,---,0.00,VWS V14.01,2013-02-05 22:20:00,
2013-02-05 17:25:00,57.1,35.4,29.88,West,276,5.0,5.0,44,0.00,,---,0.00,VWS V14.01,2013-02-05 22:25:00,
2013-02-05 17:31:00,56.8,35.1,29.88,West,265,4.0,5.0,44,0.00,,---,0.00,VWS V14.01,2013-02-05 22:31:00,
2013-02-05 17:36:00,56.6,35.0,29.88,WNW,303,1.0,5.0,44,0.00,,---,0.00,VWS V14.01,2013-02-05 22:36:00,
2013-02-05 17:41:00,56.3,35.2,29.88,NW,317,1.0,5.0,45,0.00,,---,0.00,VWS V14.01,2013-02-05 22:41:00,
2013-02-05 17:46:00,56.0,35.5,29.88,NW,304,0.0,5.0,46,0.00,,---,0.00,VWS V14.01,2013-02-05 22:46:00,
2013-02-05 17:51:00,55.7,35.3,29.88,WNW,286,1.0,5.0,46,0.00,,---,0.00,VWS V14.01,2013-02-05 22:51:00,
2013-02-05 17:56:00,55.5,35.1,29.88,WNW,295,0.0,0.0,46,0.00,,---,0.00,VWS V14.01,2013-02-05 22:56:00,
2013-02-05 18:01:00,55.1,35.2,29.88,NW,325,0.0,1.0,47,0.00,,---,0.00,VWS V14.01,2013-02-05 23:01:00,
2013-02-05 18:06:00,54.7,35.9,29.88,NW,325,0.0,1.0,49,0.00,,---,0.00,VWS V14.01,2013-02-05 23:06:00,
2013-02-05 18:11:00,53.8,35.6,29.88,NW,325,0.0,1.0,50,0.00,,---,0.00,VWS V14.01,2013-02-05 23:11:00,
2013-02-05 18:16:00,53.0,35.4,29.88,NW,325,0.0,1.0,51,0.00,,---,0.00,VWS V14.01,2013-02-05 23:16:00,
2013-02-05 18:21:00,52.3,35.7,29.88,NW,325,0.0,1.0,53,0.00,,---,0.00,VWS V14.01,2013-02-05 23:21:00,
2013-02-05 18:26:00,51.7,36.1,29.89,NW,325,0.0,0.0,55,0.00,,---,0.00,VWS V14.01,2013-02-05 23:26:00,
2013-02-05 18:31:00,51.0,35.4,29.89,NW,326,0.0,0.0,55,0.00,,---,0.00,VWS V14.01,2013-02-05 23:31:00,
2013-02-05 18:36:00,50.5,35.8,29.89,NW,325,0.0,0.0,57,0.00,,---,0.00,VWS V14.01,2013-02-05 23:36:00,
2013-02-05 18:41:00,49.9,35.3,29.89,NW,326,0.0,0.0,57,0.00,,---,0.00,VWS V14.01,2013-02-05 23:41:00,
2013-02-05 18:46:00,49.5,35.8,29.90,NW,325,0.0,0.0,59,0.00,,---,0.00,VWS V14.01,2013-02-05 23:46:00,
2013-02-05 18:51:00,49.0,35.3,29.89,NW,325,0.0,0.0,59,0.00,,---,0.00,VWS V14.01,2013-02-05 23:51:00,
2013-02-05 18:56:00,48.6,35.4,29.90,NW,325,0.0,0.0,60,0.00,,---,0.00,VWS V14.01,2013-02-05 23:56:00,
2013-02-05 19:01:00,48.2,35.8,29.90,NW,325,0.0,0.0,62,0.00,,---,0.00,VWS V14.01,2013-02-06 00:01:00,
2013-02-05 19:06:00,47.6,35.6,29.90,NW,326,0.0,0.0,63,0.00,,---,0.00,VWS V14.01,2013-02-06 00:06:00,
2013-02-05 19:11:00,47.1,35.6,29.90,NW,325,0.0,0.0,64,0.00,,---,0.00,VWS V14.01,2013-02-06 00:11:00,
2013-02-05 19:16:00,46.6,35.5,29.90,NW,325,0.0,0.0,65,0.00,,---,0.00,VWS V14.01,2013-02-06 00:16:00,
2013-02-05 19:21:00,46.2,35.1,29.91,NW,325,0.0,0.0,65,0.00,,---,0.00,VWS V14.01,2013-02-06 00:21:00,
2013-02-05 19:26:00,45.8,35.5,29.91,NW,325,0.0,0.0,67,0.00,,---,0.00,VWS V14.01,2013-02-06 00:26:00,
2013-02-05 19:31:00,45.5,35.6,29.91,NNE,28,0.0,1.0,68,0.00,,---,0.00,VWS V14.01,2013-02-06 00:31:00,
2013-02-05 19:36:00,45.2,35.3,29.91,NNE,28,1.0,1.0,68,0.00,,---,0.00,VWS V14.01,2013-02-06 00:36:00,
2013-02-05 19:41:00,45.0,35.5,29.91,NNE,19,0.0,1.0,69,0.00,,---,0.00,VWS V14.01,2013-02-06 00:41:00,
2013-02-05 19:46:00,45.0,35.5,29.92,North,11,1.0,2.0,69,0.00,,---,0.00,VWS V14.01,2013-02-06 00:46:00,
2013-02-05 19:51:00,45.3,35.4,29.92,NNW,329,3.0,3.0,68,0.00,,---,0.00,VWS V14.01,2013-02-06 00:51:00,
2013-02-05 19:56:00,45.9,35.6,29.92,NE,34,1.0,1.0,67,0.00,,---,0.00,VWS V14.01,2013-02-06 00:56:00,
2013-02-05 20:01:00,46.5,35.8,29.92,NNW,347,0.0,2.0,66,0.00,,---,0.00,VWS V14.01,2013-02-06 01:01:00,
2013-02-05 20:07:00,46.7,35.6,29.92,North,350,1.0,2.0,65,0.00,,---,0.00,VWS V14.01,2013-02-06 01:07:00,
2013-02-05 20:11:00,46.9,35.4,29.92,NNW,346,0.0,2.0,64,0.00,,---,0.00,VWS V14.01,2013-02-06 01:11:00,
2013-02-05 20:17:00,46.8,35.3,29.92,NNW,327,0.0,2.0,64,0.00,,---,0.00,VWS V14.01,2013-02-06 01:17:00,
2013-02-05 20:22:00,46.5,35.4,29.92,NNW,327,0.0,2.0,65,0.00,,---,0.00,VWS V14.01,2013-02-06 01:22:00,
2013-02-05 20:27:00,46.1,35.0,29.92,NNW,327,0.0,0.0,65,0.00,,---,0.00,VWS V14.01,2013-02-06 01:27:00,
2013-02-05 20:32:00,46.1,35.0,29.92,NNW,327,0.0,1.0,65,0.00,,---,0.00,VWS V14.01,2013-02-06 01:32:00,
2013-02-05 20:37:00,45.9,34.8,29.92,NNW,327,1.0,1.0,65,0.00,,---,0.00,VWS V14.01,2013-02-06 01:37:00,
2013-02-05 20:42:00,45.8,35.1,29.92,NNW,327,0.0,1.0,66,0.00,,---,0.00,VWS V14.01,2013-02-06 01:42:00,
2013-02-05 20:47:00,45.7,35.0,29.93,NNW,327,0.0,1.0,66,0.00,,---,0.00,VWS V14.01,2013-02-06 01:47:00,
2013-02-05 20:52:00,45.3,34.6,29.93,NNW,327,0.0,1.0,66,0.00,,---,0.00,VWS V14.01,2013-02-06 01:52:00,
2013-02-05 20:57:00,45.0,34.7,29.93,NNW,327,0.0,0.0,67,0.00,,---,0.00,VWS V14.01,2013-02-06 01:57:00,
2013-02-05 21:02:00,44.8,34.9,29.93,NNW,327,0.0,0.0,68,0.00,,---,0.00,VWS V14.01,2013-02-06 02:02:00,
2013-02-05 21:07:00,44.5,35.0,29.93,NNW,327,1.0,1.0,69,0.00,,---,0.00,VWS V14.01,2013-02-06 02:07:00,
2013-02-05 21:12:00,44.2,34.7,29.93,NNW,327,0.0,1.0,69,0.00,,---,0.00,VWS V14.01,2013-02-06 02:12:00,
2013-02-05 21:17:00,44.0,34.5,29.93,NNW,327,0.0,1.0,69,0.00,,---,0.00,VWS V14.01,2013-02-06 02:17:00,
2013-02-05 21:22:00,44.1,34.6,29.94,NNW,345,1.0,1.0,69,0.00,,---,0.00,VWS V14.01,2013-02-06 02:22:00,
2013-02-05 21:27:00,44.0,34.5,29.94,NNW,345,0.0,0.0,69,0.00,,---,0.00,VWS V14.01,2013-02-06 02:27:00,
2013-02-05 21:32:00,44.0,34.5,29.94,NW,315,0.0,1.0,69,0.00,,---,0.00,VWS V14.01,2013-02-06 02:32:00,
2013-02-05 21:37:00,43.9,34.4,29.94,NW,315,0.0,1.0,69,0.00,,---,0.00,VWS V14.01,2013-02-06 02:37:00,
2013-02-05 21:42:00,43.8,34.7,29.94,NW,315,0.0,1.0,70,0.00,,---,0.00,VWS V14.01,2013-02-06 02:42:00,
2013-02-05 21:47:00,43.6,34.5,29.94,NW,315,0.0,1.0,70,0.00,,---,0.00,VWS V14.01,2013-02-06 02:47:00,
2013-02-05 21:52:00,43.1,34.3,29.94,NW,315,0.0,1.0,71,0.00,,---,0.00,VWS V14.01,2013-02-06 02:52:00,
2013-02-05 21:57:00,42.6,34.2,29.94,NW,315,0.0,0.0,72,0.00,,---,0.00,VWS V14.01,2013-02-06 02:57:00,
2013-02-05 22:02:00,42.3,33.9,29.94,NW,315,0.0,0.0,72,0.00,,---,0.00,VWS V14.01,2013-02-06 03:02:00,
2013-02-05 22:07:00,42.1,33.7,29.95,NW,315,0.0,0.0,72,0.00,,---,0.00,VWS V14.01,2013-02-06 03:07:00,
2013-02-05 22:12:00,41.9,33.9,29.95,NW,315,0.0,1.0,73,0.00,,---,0.00,VWS V14.01,2013-02-06 03:12:00,
2013-02-05 22:17:00,41.7,33.7,29.95,NW,315,0.0,1.0,73,0.00,,---,0.00,VWS V14.01,2013-02-06 03:17:00,
2013-02-05 22:22:00,41.5,33.5,29.95,NW,315,0.0,1.0,73,0.00,,---,0.00,VWS V14.01,2013-02-06 03:22:00,
2013-02-05 22:27:00,41.2,33.5,29.95,NW,315,0.0,1.0,74,0.00,,---,0.00,VWS V14.01,2013-02-06 03:27:00,
2013-02-05 22:32:00,40.9,33.6,29.95,NW,315,0.0,1.0,75,0.00,,---,0.00,VWS V14.01,2013-02-06 03:32:00,
2013-02-05 22:37:00,40.6,33.3,29.95,NW,315,0.0,1.0,75,0.00,,---,0.00,VWS V14.01,2013-02-06 03:37:00,
2013-02-05 22:42:00,40.2,33.2,29.95,NW,315,0.0,1.0,76,0.00,,---,0.00,VWS V14.01,2013-02-06 03:42:00,
2013-02-05 22:47:00,39.8,33.2,29.95,NW,315,0.0,1.0,77,0.00,,---,0.00,VWS V14.01,2013-02-06 03:47:00,
2013-02-05 22:52:00,39.4,33.1,29.95,NW,315,0.0,1.0,78,0.00,,---,0.00,VWS V14.01,2013-02-06 03:52:00,
2013-02-05 22:57:00,39.3,33.3,29.95,NW,315,0.0,0.0,79,0.00,,---,0.00,VWS V14.01,2013-02-06 03:57:00,
2013-02-05 23:02:00,39.2,33.2,29.95,NW,315,0.0,0.0,79,0.00,,---,0.00,VWS V14.01,2013-02-06 04:02:00,
2013-02-05 23:07:00,39.2,33.2,29.95,NW,315,0.0,0.0,79,0.00,,---,0.00,VWS V14.01,2013-02-06 04:07:00,
2013-02-05 23:12:00,38.9,33.0,29.95,NW,315,0.0,0.0,79,0.00,,---,0.00,VWS V14.01,2013-02-06 04:12:00,
2013-02-05 23:17:00,38.8,32.9,29.95,NW,315,0.0,0.0,79,0.00,,---,0.00,VWS V14.01,2013-02-06 04:17:00,
2013-02-05 23:22:00,38.6,32.7,29.95,NW,315,0.0,0.0,79,0.00,,---,0.00,VWS V14.01,2013-02-06 04:22:00,
2013-02-05 23:27:00,38.4,32.5,29.95,NW,315,0.0,0.0,79,0.00,,---,0.00,VWS V14.01,2013-02-06 04:27:00,
2013-02-05 23:32:00,38.2,32.6,29.95,NW,315,0.0,0.0,80,0.00,,---,0.00,VWS V14.01,2013-02-06 04:32:00,
2013-02-05 23:37:00,38.0,32.7,29.95,North,351,0.0,0.0,81,0.00,,---,0.00,VWS V14.01,2013-02-06 04:37:00,
2013-02-05 23:42:00,37.9,32.6,29.95,North,355,0.0,0.0,81,0.00,,---,0.00,VWS V14.01,2013-02-06 04:42:00,
2013-02-05 23:47:00,37.9,32.6,29.95,North,351,1.0,1.0,81,0.00,,---,0.00,VWS V14.01,2013-02-06 04:47:00,
2013-02-05 23:52:00,37.8,32.5,29.95,North,351,0.0,1.0,81,0.00,,---,0.00,VWS V14.01,2013-02-06 04:52:00,
2013-02-05 23:57:00,37.7,32.4,29.96,North,355,0.0,0.0,81,0.00,,---,0.00,VWS V14.01,2013-02-06 04:57:00,